SWR14V LFLL-LSZH

Flight info

Callsign SWR14V
Flight time 0h 39m
Altitude 24000
Route RISOR T45 VENAT Z67 LAMUR Z57 DOPIL
Aircraft A320/M-SDE3FGHIRWY/LB1

Departure

Time 2026-05-05 20:16
Airport Lyon Saint-Exupéry Airport (LFLL)

Arrival

Time 2026-05-05 20:56
Airport Zürich Airport (LSZH)
Time Latitude Longitude Altitude Speed Heading
2026-05-05 19:41 45.72430 5.08255 792 ft 0 kts 180°
2026-05-05 19:43 45.72081 5.08125 796 ft 0 kts 300°
2026-05-05 20:01 45.72074 5.08142 796 ft 2 kts 299°
2026-05-05 20:02 45.72067 5.08161 796 ft 2 kts 300°
2026-05-05 20:02 45.72059 5.08180 797 ft 2 kts 300°
2026-05-05 20:02 45.72052 5.08199 797 ft 2 kts 300°
2026-05-05 20:02 45.72044 5.08217 798 ft 2 kts 300°
2026-05-05 20:03 45.72037 5.08236 798 ft 2 kts 299°
2026-05-05 20:03 45.72027 5.08251 798 ft 2 kts 342°
2026-05-05 20:03 45.72017 5.08253 798 ft 0 kts
2026-05-05 20:03 45.72010 5.08250 798 ft 0 kts 12°
2026-05-05 20:05 45.72021 5.08253 798 ft 9 kts 12°
2026-05-05 20:05 45.72127 5.08298 797 ft 17 kts 19°
2026-05-05 20:06 45.72245 5.08328 795 ft 16 kts 40°
2026-05-05 20:06 45.72329 5.08415 795 ft 15 kts 357°
2026-05-05 20:06 45.72441 5.08402 793 ft 16 kts 355°
2026-05-05 20:06 45.72562 5.08386 790 ft 18 kts 354°
2026-05-05 20:07 45.72690 5.08369 787 ft 19 kts 355°
2026-05-05 20:07 45.72825 5.08351 784 ft 19 kts 354°
2026-05-05 20:07 45.72965 5.08335 781 ft 20 kts 356°
2026-05-05 20:07 45.73109 5.08319 778 ft 21 kts 355°
2026-05-05 20:08 45.73257 5.08299 775 ft 21 kts 355°
2026-05-05 20:08 45.73402 5.08283 773 ft 17 kts 356°
2026-05-05 20:08 45.73522 5.08269 772 ft 17 kts 355°
2026-05-05 20:08 45.73647 5.08254 769 ft 18 kts 359°
2026-05-05 20:09 45.73728 5.08361 769 ft 16 kts 87°
2026-05-05 20:09 45.73710 5.08483 770 ft 9 kts 105°
2026-05-05 20:09 45.73694 5.08567 772 ft 7 kts 105°
2026-05-05 20:09 45.73680 5.08635 773 ft 6 kts 105°
2026-05-05 20:10 45.73663 5.08694 774 ft 9 kts 130°
2026-05-05 20:10 45.73592 5.08723 775 ft 0 kts 175°
2026-05-05 20:15 45.73580 5.08724 775 ft 14 kts 175°
2026-05-05 20:15 45.73229 5.08766 782 ft 84 kts 174°
2026-05-05 20:15 45.72442 5.08861 799 ft 141 kts 175°
2026-05-05 20:16 45.71398 5.08993 1193 ft 154 kts 175°
2026-05-05 20:16 45.70335 5.09122 1812 ft 156 kts 176°
2026-05-05 20:16 45.69261 5.09210 2457 ft 155 kts 177°
2026-05-05 20:16 45.68185 5.09317 2892 ft 163 kts 175°
2026-05-05 20:17 45.66998 5.09477 3175 ft 180 kts 175°
2026-05-05 20:17 45.65689 5.09653 3507 ft 196 kts 175°
2026-05-05 20:17 45.64247 5.09837 3774 ft 219 kts 175°
2026-05-05 20:17 45.62692 5.10031 4227 ft 235 kts 174°
2026-05-05 20:18 45.61046 5.10557 4706 ft 252 kts 160°
2026-05-05 20:18 45.59491 5.11839 5259 ft 267 kts 137°
2026-05-05 20:18 45.58474 5.14057 6026 ft 275 kts 110°
2026-05-05 20:18 45.58047 5.16697 6833 ft 279 kts 101°
2026-05-05 20:19 45.57737 5.19445 7601 ft 284 kts 101°
2026-05-05 20:19 45.57392 5.22238 8391 ft 288 kts 102°
2026-05-05 20:19 45.57000 5.25027 9170 ft 291 kts 103°
2026-05-05 20:19 45.56572 5.27847 9940 ft 294 kts 104°
2026-05-05 20:20 45.56123 5.30662 10598 ft 299 kts 105°
2026-05-05 20:20 45.55631 5.33642 10961 ft 316 kts 106°
2026-05-05 20:20 45.55112 5.36737 11277 ft 333 kts 105°
2026-05-05 20:20 45.54556 5.40020 11710 ft 345 kts 106°
2026-05-05 20:21 45.53999 5.43326 12360 ft 348 kts 106°
2026-05-05 20:21 45.53433 5.46695 13047 ft 349 kts 107°
2026-05-05 20:21 45.52860 5.50073 13603 ft 353 kts 107°
2026-05-05 20:21 45.52284 5.53454 13891 ft 355 kts 107°
2026-05-05 20:22 45.51704 5.56860 13913 ft 354 kts 107°
2026-05-05 20:22 45.51174 5.60274 13905 ft 356 kts 102°
2026-05-05 20:22 45.50962 5.63853 14051 ft 366 kts 93°
2026-05-05 20:22 45.51131 5.67457 14682 ft 370 kts 87°
2026-05-05 20:23 45.51462 5.71104 15392 ft 371 kts 85°
2026-05-05 20:23 45.51816 5.74716 15979 ft 374 kts 85°
2026-05-05 20:23 45.52177 5.78432 16524 ft 378 kts 85°
2026-05-05 20:23 45.52525 5.82100 17074 ft 381 kts 86°
2026-05-05 20:24 45.52875 5.85846 17496 ft 388 kts 86°
2026-05-05 20:24 45.53233 5.89728 17890 ft 395 kts 86°
2026-05-05 20:24 45.53713 5.93552 18355 ft 402 kts 75°
2026-05-05 20:24 45.55063 5.97060 18812 ft 412 kts 51°
2026-05-05 20:25 45.57287 5.99690 19349 ft 416 kts 32°
2026-05-05 20:25 45.59775 6.01813 19880 ft 418 kts 31°
2026-05-05 20:25 45.62271 6.03927 20337 ft 421 kts 31°
2026-05-05 20:25 45.64774 6.06083 20808 ft 425 kts 31°
2026-05-05 20:26 45.67287 6.08298 21296 ft 427 kts 32°
2026-05-05 20:26 45.69778 6.10542 21783 ft 428 kts 31°
2026-05-05 20:26 45.72321 6.12786 22206 ft 432 kts 31°
2026-05-05 20:26 45.74895 6.15045 22635 ft 435 kts 31°
2026-05-05 20:27 45.77462 6.17324 23067 ft 437 kts 33°
2026-05-05 20:27 45.79859 6.20066 23477 ft 440 kts 43°
2026-05-05 20:27 45.82055 6.23134 23706 ft 447 kts 46°
2026-05-05 20:27 45.84247 6.26310 23869 ft 455 kts 46°
2026-05-05 20:28 45.86508 6.29562 23904 ft 466 kts 45°
2026-05-05 20:28 45.88825 6.32853 23906 ft 477 kts 45°
2026-05-05 20:28 45.91222 6.36226 23916 ft 487 kts 45°
2026-05-05 20:28 45.93663 6.39641 23931 ft 496 kts 45°
2026-05-05 20:29 45.96148 6.43106 23933 ft 502 kts 45°
2026-05-05 20:29 45.98639 6.46574 23925 ft 503 kts 45°
2026-05-05 20:29 46.01174 6.50101 23938 ft 504 kts 44°
2026-05-05 20:29 46.03684 6.53597 23936 ft 504 kts 44°
2026-05-05 20:30 46.06175 6.57070 23939 ft 504 kts 44°
2026-05-05 20:30 46.08674 6.60555 23930 ft 503 kts 44°
2026-05-05 20:30 46.11199 6.64081 23931 ft 503 kts 45°
2026-05-05 20:30 46.13695 6.67571 23938 ft 503 kts 45°
2026-05-05 20:31 46.16205 6.71085 23936 ft 504 kts 46°
2026-05-05 20:31 46.18708 6.74598 23934 ft 504 kts 45°
2026-05-05 20:31 46.21236 6.78153 23938 ft 504 kts 45°
2026-05-05 20:31 46.23737 6.81671 23946 ft 504 kts 45°
2026-05-05 20:32 46.26250 6.85211 23939 ft 505 kts 45°
2026-05-05 20:32 46.28751 6.88741 23955 ft 505 kts 45°
2026-05-05 20:32 46.31249 6.92268 23952 ft 504 kts 45°
2026-05-05 20:32 46.33731 6.95779 23955 ft 504 kts 45°
2026-05-05 20:33 46.36261 6.99361 23959 ft 504 kts 45°
2026-05-05 20:33 46.38738 7.02871 23958 ft 504 kts 45°
2026-05-05 20:33 46.41248 7.06437 23966 ft 504 kts 45°
2026-05-05 20:33 46.43756 7.10003 23964 ft 504 kts 45°
2026-05-05 20:34 46.46226 7.13519 23963 ft 503 kts 45°
2026-05-05 20:34 46.48703 7.17050 23968 ft 504 kts 45°
2026-05-05 20:34 46.51220 7.20641 23955 ft 504 kts 45°
2026-05-05 20:34 46.53717 7.24210 23949 ft 504 kts 45°
2026-05-05 20:35 46.56191 7.27752 23952 ft 504 kts 45°
2026-05-05 20:35 46.58669 7.31305 23952 ft 504 kts 45°
2026-05-05 20:35 46.61174 7.34902 23957 ft 505 kts 45°
2026-05-05 20:35 46.63649 7.38463 23938 ft 504 kts 45°
2026-05-05 20:36 46.66159 7.42077 23940 ft 504 kts 45°
2026-05-05 20:36 46.68614 7.45618 23938 ft 504 kts 45°
2026-05-05 20:36 46.71121 7.49238 23947 ft 503 kts 45°
2026-05-05 20:36 46.73578 7.52788 23926 ft 503 kts 45°
2026-05-05 20:37 46.76052 7.56369 23912 ft 502 kts 45°
2026-05-05 20:37 46.78518 7.59941 23925 ft 503 kts 45°
2026-05-05 20:37 46.80987 7.63526 23918 ft 502 kts 45°
2026-05-05 20:37 46.83457 7.67116 23897 ft 501 kts 46°
2026-05-05 20:38 46.85924 7.70707 23915 ft 501 kts 46°
2026-05-05 20:38 46.88392 7.74304 23902 ft 501 kts 46°
2026-05-05 20:38 46.90847 7.77890 23902 ft 501 kts 46°
2026-05-05 20:38 46.93291 7.81464 23881 ft 499 kts 46°
2026-05-05 20:39 46.95728 7.85032 23518 ft 491 kts 45°
2026-05-05 20:39 46.98104 7.88516 22693 ft 487 kts 46°
2026-05-05 20:39 47.00493 7.92022 21847 ft 484 kts 46°
2026-05-05 20:39 47.02839 7.95471 21158 ft 478 kts 46°
2026-05-05 20:40 47.05146 7.98868 20482 ft 472 kts 46°
2026-05-05 20:40 47.07449 8.02256 19807 ft 467 kts 45°
2026-05-05 20:40 47.09767 8.05543 19127 ft 462 kts 44°
2026-05-05 20:40 47.12067 8.08745 18613 ft 454 kts 44°
2026-05-05 20:41 47.14335 8.11903 18360 ft 439 kts 44°
2026-05-05 20:41 47.16510 8.14948 18130 ft 426 kts 44°
2026-05-05 20:41 47.18608 8.17903 17909 ft 413 kts 45°
2026-05-05 20:41 47.20372 8.21051 17677 ft 399 kts 59°
2026-05-05 20:42 47.21678 8.24624 17419 ft 389 kts 65°
2026-05-05 20:42 47.22832 8.28135 16967 ft 385 kts 65°
2026-05-05 20:42 47.23994 8.31639 16180 ft 377 kts 65°
2026-05-05 20:42 47.25145 8.35011 15193 ft 375 kts 64°
2026-05-05 20:43 47.26313 8.38358 14499 ft 361 kts 64°
2026-05-05 20:43 47.27449 8.41560 14062 ft 342 kts 63°
2026-05-05 20:43 47.28526 8.44578 13694 ft 325 kts 63°
2026-05-05 20:43 47.29556 8.47457 13196 ft 315 kts 63°
2026-05-05 20:44 47.30561 8.50269 12534 ft 311 kts 63°
2026-05-05 20:44 47.31561 8.53064 11853 ft 308 kts 63°
2026-05-05 20:44 47.32543 8.55807 11205 ft 305 kts 63°
2026-05-05 20:44 47.33519 8.58537 10555 ft 302 kts 63°
2026-05-05 20:45 47.35449 8.63935 9255 ft 296 kts 63°
2026-05-05 20:45 47.36404 8.66609 8619 ft 292 kts 64°
2026-05-05 20:45 47.37343 8.69246 7967 ft 290 kts 64°
2026-05-05 20:46 47.38266 8.71831 7342 ft 287 kts 64°
2026-05-05 20:46 47.39179 8.74396 6758 ft 282 kts 64°
2026-05-05 20:46 47.40089 8.76965 6113 ft 280 kts 64°
2026-05-05 20:46 47.40978 8.79471 5544 ft 280 kts 64°
2026-05-05 20:47 47.41880 8.82020 5212 ft 278 kts 64°
2026-05-05 20:47 47.42764 8.84510 5011 ft 273 kts 64°
2026-05-05 20:47 47.43677 8.86933 4994 ft 273 kts 55°
2026-05-05 20:47 47.45069 8.88741 4982 ft 262 kts 28°
2026-05-05 20:48 47.46667 8.89849 4982 ft 248 kts 30°
2026-05-05 20:48 47.47894 8.91508 4966 ft 234 kts 63°
2026-05-05 20:48 47.48319 8.93774 4985 ft 229 kts 95°
2026-05-05 20:48 47.47865 8.95960 4995 ft 223 kts 125°
2026-05-05 20:49 47.46808 8.97547 4993 ft 219 kts 154°
2026-05-05 20:49 47.45370 8.98013 4993 ft 211 kts 187°
2026-05-05 20:49 47.44072 8.97210 4995 ft 203 kts 222°
2026-05-05 20:49 47.43326 8.95447 5021 ft 205 kts 250°
2026-05-05 20:50 47.43087 8.93377 5027 ft 207 kts 266°
2026-05-05 20:50 47.43155 8.91248 5021 ft 207 kts 274°
2026-05-05 20:50 47.43357 8.89166 5016 ft 208 kts 276°
2026-05-05 20:50 47.43559 8.87116 5089 ft 194 kts 275°
2026-05-05 20:51 47.43723 8.85198 5019 ft 180 kts 274°
2026-05-05 20:51 47.43856 8.83419 4999 ft 177 kts 273°
2026-05-05 20:51 47.43982 8.81532 4943 ft 190 kts 273°
2026-05-05 20:51 47.44110 8.79596 4673 ft 189 kts 273°
2026-05-05 20:52 47.44239 8.77659 4403 ft 190 kts 274°
2026-05-05 20:52 47.44368 8.75726 4134 ft 189 kts 274°
2026-05-05 20:52 47.44494 8.73859 3857 ft 180 kts 274°
2026-05-05 20:52 47.44617 8.72058 3592 ft 172 kts 274°
2026-05-05 20:53 47.44735 8.70346 3367 ft 163 kts 274°
2026-05-05 20:53 47.44847 8.68722 3133 ft 153 kts 274°
2026-05-05 20:53 47.44951 8.67213 2893 ft 143 kts 274°
2026-05-05 20:53 47.45049 8.65786 2689 ft 140 kts 274°
2026-05-05 20:54 47.45147 8.64359 2496 ft 139 kts 274°
2026-05-05 20:54 47.45244 8.62954 2294 ft 138 kts 274°
2026-05-05 20:54 47.45325 8.61547 2108 ft 137 kts 275°
2026-05-05 20:54 47.45435 8.60129 1925 ft 137 kts 276°
2026-05-05 20:55 47.45544 8.58748 1738 ft 137 kts 275°
2026-05-05 20:55 47.45637 8.57343 1528 ft 137 kts 275°
2026-05-05 20:55 47.45735 8.55976 1399 ft 123 kts 276°
2026-05-05 20:55 47.45804 8.54979 1383 ft 74 kts 275°
2026-05-05 20:56 47.45817 8.54511 1383 ft 30 kts 261°
2026-05-05 20:56 47.45773 8.54323 1388 ft 9 kts 247°
2026-05-05 20:56 47.45744 8.54237 1388 ft 9 kts 235°
2026-05-05 20:56 47.45696 8.54198 1389 ft 7 kts 187°
2026-05-05 20:57 47.45638 8.54226 1390 ft 11 kts 141°
2026-05-05 20:57 47.45606 8.54313 1390 ft 9 kts 105°
2026-05-05 20:57 47.45575 8.54450 1390 ft 20 kts 109°
2026-05-05 20:57 47.45538 8.54611 1388 ft 13 kts 109°
2026-05-05 20:58 47.45523 8.54674 1387 ft 0 kts 109°
2026-05-05 20:58 47.45517 8.54699 1386 ft 5 kts 109°
2026-05-05 20:58 47.45496 8.54789 1385 ft 4 kts 106°
2026-05-05 20:58 47.45492 8.54814 1384 ft 0 kts 105°
2026-05-05 20:59 47.45490 8.54824 1384 ft 5 kts 106°
2026-05-05 20:59 47.45462 8.54949 1384 ft 15 kts 110°
2026-05-05 20:59 47.45423 8.55106 1385 ft 16 kts 111°
2026-05-05 21:00 47.45384 8.55265 1388 ft 16 kts 112°
2026-05-05 21:00 47.45428 8.55386 1390 ft 15 kts 27°
2026-05-05 21:00 47.45454 8.55405 1391 ft 1 kts 27°
2026-05-05 21:00 47.45466 8.55415 1391 ft 2 kts 27°
2026-05-05 21:01 47.45488 8.55431 1392 ft 4 kts 27°
2026-05-05 21:01 47.45520 8.55456 1392 ft 6 kts 36°
2026-05-05 21:01 47.45531 8.55482 1392 ft 1 kts 90°
2026-05-05 21:01 47.45527 8.55506 1393 ft 2 kts 105°
2026-05-05 21:02 47.45523 8.55533 1393 ft 2 kts 97°
2026-05-05 21:02 47.45520 8.55570 1394 ft 4 kts 97°
2026-05-05 21:02 47.45515 8.55625 1395 ft 6 kts 97°
2026-05-05 21:02 47.45538 8.55677 1396 ft 8 kts 14°
2026-05-05 21:03 47.45577 8.55684 1396 ft 2 kts
2026-05-05 21:03 47.45587 8.55686 1396 ft 0 kts